Time,TemperatureF,DewpointF,PressureIn,WindDirection,WindDirectionDegrees,WindSpeedMPH,WindSpeedGustMPH,Humidity,HourlyPrecipIn,Conditions,Clouds,dailyrainin,SolarRadiationWatts/m^2,SoftwareType,DateUTC
2013-07-18 00:02:00,81.5,74.4,30.11,ESE,106,4.0,4.0,79,0.00,,,0.00,0,Wunderground v.1.15,2013-07-18 04:02:00,
2013-07-18 00:06:00,81.4,74.3,30.11,ESE,106,3.0,4.0,79,0.00,,,0.00,0,Wunderground v.1.15,2013-07-18 04:06:00,
2013-07-18 00:08:00,81.4,74.3,30.11,ESE,106,3.0,4.0,79,0.00,,,0.00,0,Wunderground v.1.15,2013-07-18 04:08:00,
2013-07-18 00:10:00,81.4,74.3,30.11,ESE,106,3.0,7.0,79,0.00,,,0.00,0,Wunderground v.1.15,2013-07-18 04:10:00,
2013-07-18 00:12:00,81.3,74.2,30.11,ESE,106,4.0,7.0,79,0.00,,,0.00,0,Wunderground v.1.15,2013-07-18 04:12:00,
2013-07-18 00:18:00,81.3,74.2,30.11,ESE,106,4.0,7.0,79,0.00,,,0.00,0,Wunderground v.1.15,2013-07-18 04:18:00,
2013-07-18 00:24:00,81.2,73.7,30.10,ESE,106,3.0,4.0,78,0.00,,,0.00,0,Wunderground v.1.15,2013-07-18 04:24:00,
2013-07-18 00:30:00,81.2,73.7,30.11,ESE,106,3.0,3.0,78,0.00,,,0.00,0,Wunderground v.1.15,2013-07-18 04:30:00,
2013-07-18 00:36:00,81.1,74.0,30.11,ESE,106,4.0,4.0,79,0.00,,,0.00,0,Wunderground v.1.15,2013-07-18 04:36:00,
2013-07-18 00:42:00,81.1,73.6,30.11,ESE,106,4.0,4.0,78,0.00,,,0.00,0,Wunderground v.1.15,2013-07-18 04:42:00,
2013-07-18 00:48:00,81.0,73.5,30.11,ESE,106,4.0,4.0,78,0.00,,,0.00,0,Wunderground v.1.15,2013-07-18 04:48:00,
2013-07-18 00:56:00,81.0,73.5,30.10,ESE,106,4.0,4.0,78,0.00,,,0.00,0,Wunderground v.1.15,2013-07-18 04:56:00,
2013-07-18 01:02:00,80.9,73.4,30.10,ESE,106,3.0,3.0,78,0.00,,,0.00,0,Wunderground v.1.15,2013-07-18 05:02:00,
2013-07-18 01:08:00,80.8,73.3,30.11,ESE,106,3.0,4.0,78,0.00,,,0.00,0,Wunderground v.1.15,2013-07-18 05:08:00,
2013-07-18 01:14:00,80.8,73.7,30.10,ESE,106,4.0,7.0,79,0.00,,,0.00,0,Wunderground v.1.15,2013-07-18 05:14:00,
2013-07-18 01:20:00,80.7,73.6,30.10,ESE,106,5.0,5.0,79,0.00,,,0.00,0,Wunderground v.1.15,2013-07-18 05:20:00,
2013-07-18 01:26:00,80.6,73.9,30.10,ESE,106,5.0,5.0,80,0.00,,,0.00,0,Wunderground v.1.15,2013-07-18 05:26:00,
2013-07-18 01:32:00,80.5,73.8,30.11,ESE,106,5.0,5.0,80,0.00,,,0.00,0,Wunderground v.1.15,2013-07-18 05:32:00,
2013-07-18 01:38:00,80.4,74.0,30.11,ESE,106,5.0,7.0,81,0.00,,,0.00,0,Wunderground v.1.15,2013-07-18 05:38:00,
2013-07-18 01:44:00,80.3,74.3,30.11,ESE,106,4.0,7.0,82,0.00,,,0.00,0,Wunderground v.1.15,2013-07-18 05:44:00,
2013-07-18 01:50:00,80.2,74.2,30.11,ESE,106,4.0,5.0,82,0.00,,,0.00,0,Wunderground v.1.15,2013-07-18 05:50:00,
2013-07-18 01:56:00,80.1,74.1,30.10,ESE,106,5.0,8.0,82,0.00,,,0.00,0,Wunderground v.1.15,2013-07-18 05:56:00,
2013-07-18 02:02:00,80.0,74.4,30.10,ESE,106,5.0,5.0,83,0.00,,,0.00,0,Wunderground v.1.15,2013-07-18 06:02:00,
2013-07-18 02:08:00,80.0,74.4,30.10,ESE,106,4.0,5.0,83,0.00,,,0.00,0,Wunderground v.1.15,2013-07-18 06:08:00,
2013-07-18 02:14:00,79.9,74.3,30.10,ESE,106,4.0,4.0,83,0.00,,,0.00,0,Wunderground v.1.15,2013-07-18 06:14:00,
2013-07-18 02:20:00,79.8,74.2,30.10,ESE,106,4.0,5.0,83,0.00,,,0.00,0,Wunderground v.1.15,2013-07-18 06:20:00,
2013-07-18 02:26:00,79.8,74.5,30.10,ESE,106,5.0,8.0,84,0.00,,,0.00,0,Wunderground v.1.15,2013-07-18 06:26:00,
2013-07-18 02:32:00,79.7,74.4,30.10,ESE,106,4.0,5.0,84,0.00,,,0.00,0,Wunderground v.1.15,2013-07-18 06:32:00,
2013-07-18 02:38:00,79.7,74.4,30.09,ESE,106,4.0,5.0,84,0.00,,,0.00,0,Wunderground v.1.15,2013-07-18 06:38:00,
2013-07-18 02:44:00,79.6,74.7,30.09,ESE,106,4.0,4.0,85,0.00,,,0.00,0,Wunderground v.1.15,2013-07-18 06:44:00,
2013-07-18 02:50:00,79.5,74.6,30.09,ESE,106,4.0,5.0,85,0.00,,,0.00,0,Wunderground v.1.15,2013-07-18 06:50:00,
2013-07-18 02:56:00,79.4,74.5,30.09,ESE,106,4.0,7.0,85,0.00,,,0.00,0,Wunderground v.1.15,2013-07-18 06:56:00,
2013-07-18 03:02:00,79.4,74.8,30.09,ESE,106,4.0,4.0,86,0.00,,,0.00,0,Wunderground v.1.15,2013-07-18 07:02:00,
2013-07-18 03:08:00,79.4,74.8,30.09,ESE,106,4.0,5.0,86,0.00,,,0.00,0,Wunderground v.1.15,2013-07-18 07:08:00,
2013-07-18 03:16:00,79.3,74.7,30.08,ESE,106,4.0,4.0,86,0.00,,,0.00,0,Wunderground v.1.15,2013-07-18 07:16:00,
2013-07-18 03:22:00,79.3,74.7,30.08,ESE,106,4.0,5.0,86,0.00,,,0.00,0,Wunderground v.1.15,2013-07-18 07:22:00,
2013-07-18 03:28:00,79.3,75.1,30.08,ESE,106,4.0,5.0,87,0.00,,,0.00,0,Wunderground v.1.15,2013-07-18 07:28:00,
2013-07-18 03:36:00,79.2,75.0,30.08,ESE,106,4.0,4.0,87,0.00,,,0.00,0,Wunderground v.1.15,2013-07-18 07:36:00,
2013-07-18 03:42:00,79.2,75.0,30.08,ESE,106,3.0,4.0,87,0.00,,,0.00,0,Wunderground v.1.15,2013-07-18 07:42:00,
2013-07-18 03:48:00,79.1,74.9,30.08,ESE,106,3.0,5.0,87,0.00,,,0.00,0,Wunderground v.1.15,2013-07-18 07:48:00,
2013-07-18 03:54:00,79.1,75.2,30.08,ESE,106,4.0,4.0,88,0.00,,,0.00,0,Wunderground v.1.15,2013-07-18 07:54:00,
2013-07-18 04:00:00,79.1,75.2,30.08,ESE,106,4.0,4.0,88,0.00,,,0.00,0,Wunderground v.1.15,2013-07-18 08:00:00,
2013-07-18 04:06:00,79.0,75.1,30.08,ESE,106,4.0,4.0,88,0.00,,,0.00,0,Wunderground v.1.15,2013-07-18 08:06:00,
2013-07-18 04:12:00,78.9,75.0,30.08,ESE,106,4.0,4.0,88,0.00,,,0.00,0,Wunderground v.1.15,2013-07-18 08:12:00,
2013-07-18 04:18:00,78.9,75.0,30.08,ESE,106,3.0,4.0,88,0.00,,,0.00,0,Wunderground v.1.15,2013-07-18 08:18:00,
2013-07-18 04:24:00,78.8,75.3,30.08,ESE,106,4.0,4.0,89,0.00,,,0.00,0,Wunderground v.1.15,2013-07-18 08:24:00,
2013-07-18 04:30:00,78.8,75.3,30.08,ESE,106,4.0,4.0,89,0.00,,,0.00,0,Wunderground v.1.15,2013-07-18 08:30:00,
2013-07-18 04:36:00,78.7,75.2,30.08,ESE,106,4.0,5.0,89,0.00,,,0.00,0,Wunderground v.1.15,2013-07-18 08:36:00,
2013-07-18 04:42:00,78.7,75.2,30.08,ESE,107,5.0,5.0,89,0.00,,,0.00,0,Wunderground v.1.15,2013-07-18 08:42:00,
2013-07-18 04:48:00,78.6,75.1,30.08,ESE,106,5.0,7.0,89,0.00,,,0.00,0,Wunderground v.1.15,2013-07-18 08:48:00,
2013-07-18 04:54:00,78.6,75.4,30.08,ESE,107,5.0,5.0,90,0.00,,,0.00,0,Wunderground v.1.15,2013-07-18 08:54:00,
2013-07-18 05:00:00,78.6,75.4,30.07,ESE,112,5.0,5.0,90,0.00,,,0.00,0,Wunderground v.1.15,2013-07-18 09:00:00,
2013-07-18 05:06:00,78.6,75.4,30.07,ESE,112,5.0,7.0,90,0.00,,,0.00,0,Wunderground v.1.15,2013-07-18 09:06:00,
2013-07-18 05:12:00,78.6,75.4,30.07,ESE,112,5.0,5.0,90,0.00,,,0.00,0,Wunderground v.1.15,2013-07-18 09:12:00,
2013-07-18 05:18:00,78.6,75.4,30.07,ESE,112,5.0,7.0,90,0.00,,,0.00,0,Wunderground v.1.15,2013-07-18 09:18:00,
2013-07-18 05:24:00,78.5,75.3,30.07,ESE,112,6.0,8.0,90,0.00,,,0.00,0,Wunderground v.1.15,2013-07-18 09:24:00,
2013-07-18 05:30:00,78.5,75.7,30.07,ESE,112,5.0,5.0,91,0.00,,,0.00,0,Wunderground v.1.15,2013-07-18 09:30:00,
2013-07-18 05:36:00,78.5,75.7,30.07,ESE,112,4.0,5.0,91,0.00,,,0.00,0,Wunderground v.1.15,2013-07-18 09:36:00,
2013-07-18 05:42:00,78.5,75.7,30.07,ESE,112,5.0,5.0,91,0.00,,,0.00,0,Wunderground v.1.15,2013-07-18 09:42:00,
2013-07-18 05:48:00,78.5,75.7,30.07,ESE,112,6.0,7.0,91,0.00,,,0.00,0,Wunderground v.1.15,2013-07-18 09:48:00,
2013-07-18 05:54:00,78.5,75.7,30.07,ESE,112,5.0,8.0,91,0.00,,,0.00,5,Wunderground v.1.15,2013-07-18 09:54:00,
2013-07-18 06:00:00,78.5,76.0,30.07,ESE,112,5.0,7.0,92,0.00,,,0.00,9,Wunderground v.1.15,2013-07-18 10:00:00,
2013-07-18 06:06:00,78.5,76.0,30.07,ESE,112,5.0,8.0,92,0.00,,,0.00,12,Wunderground v.1.15,2013-07-18 10:06:00,
2013-07-18 06:12:00,78.6,76.1,30.07,ESE,112,6.0,6.0,92,0.00,,,0.00,18,Wunderground v.1.15,2013-07-18 10:12:00,
2013-07-18 06:18:00,78.7,76.2,30.07,ESE,112,6.0,6.0,92,0.00,,,0.00,25,Wunderground v.1.15,2013-07-18 10:18:00,
2013-07-18 06:24:00,78.9,76.4,30.07,ESE,112,5.0,6.0,92,0.00,,,0.00,33,Wunderground v.1.15,2013-07-18 10:24:00,
2013-07-18 06:30:00,79.0,76.5,30.07,ESE,112,6.0,6.0,92,0.00,,,0.00,42,Wunderground v.1.15,2013-07-18 10:30:00,
2013-07-18 06:36:00,79.1,76.6,30.07,ESE,112,7.0,9.0,92,0.00,,,0.00,54,Wunderground v.1.15,2013-07-18 10:36:00,
2013-07-18 06:42:00,79.2,76.7,30.07,ESE,118,7.0,7.0,92,0.00,,,0.00,69,Wunderground v.1.15,2013-07-18 10:42:00,
2013-07-18 06:48:00,79.3,76.4,30.07,ESE,119,7.0,7.0,91,0.00,,,0.00,81,Wunderground v.1.15,2013-07-18 10:48:00,
2013-07-18 06:56:00,79.6,76.7,30.07,SSE,147,6.0,7.0,91,0.00,,,0.00,104,Wunderground v.1.15,2013-07-18 10:56:00,
2013-07-18 07:02:00,79.9,76.7,30.07,SSE,150,6.0,6.0,90,0.00,,,0.00,121,Wunderground v.1.15,2013-07-18 11:02:00,
2013-07-18 07:08:00,80.2,76.7,30.08,SSE,151,6.0,6.0,89,0.00,,,0.00,134,Wunderground v.1.15,2013-07-18 11:08:00,
2013-07-18 07:16:00,80.5,76.6,30.08,SSE,151,5.0,6.0,88,0.00,,,0.00,163,Wunderground v.1.15,2013-07-18 11:16:00,
2013-07-18 07:22:00,80.9,76.7,30.08,SSE,151,5.0,7.0,87,0.00,,,0.00,179,Wunderground v.1.15,2013-07-18 11:22:00,
2013-07-18 07:28:00,81.2,76.6,30.08,SSE,152,6.0,7.0,86,0.00,,,0.00,199,Wunderground v.1.15,2013-07-18 11:28:00,
2013-07-18 07:36:00,81.6,76.6,30.08,SSE,155,5.0,6.0,85,0.00,,,0.00,220,Wunderground v.1.15,2013-07-18 11:36:00,
2013-07-18 07:42:00,82.0,76.7,30.08,SSE,163,5.0,6.0,84,0.00,,,0.00,239,Wunderground v.1.15,2013-07-18 11:42:00,
2013-07-18 07:48:00,82.3,76.6,30.08,South,169,6.0,6.0,83,0.00,,,0.00,253,Wunderground v.1.15,2013-07-18 11:48:00,
2013-07-18 07:54:00,82.6,76.5,30.08,South,173,7.0,8.0,82,0.00,,,0.00,274,Wunderground v.1.15,2013-07-18 11:54:00,
2013-07-18 08:00:00,83.5,76.7,30.08,South,173,5.0,5.0,80,0.00,,,0.00,290,Wunderground v.1.15,2013-07-18 12:00:00,
2013-07-18 08:06:00,84.1,76.9,30.09,South,174,5.0,6.0,79,0.00,,,0.00,309,Wunderground v.1.15,2013-07-18 12:06:00,
2013-07-18 08:12:00,84.4,76.4,30.08,South,174,5.0,5.0,77,0.00,,,0.00,329,Wunderground v.1.15,2013-07-18 12:12:00,
2013-07-18 08:18:00,84.8,76.8,30.09,South,174,5.0,7.0,77,0.00,,,0.00,343,Wunderground v.1.15,2013-07-18 12:18:00,
2013-07-18 08:24:00,85.1,76.7,30.09,South,174,5.0,6.0,76,0.00,,,0.00,364,Wunderground v.1.15,2013-07-18 12:24:00,
2013-07-18 08:30:00,85.5,76.3,30.09,South,174,5.0,5.0,74,0.00,,,0.00,381,Wunderground v.1.15,2013-07-18 12:30:00,
2013-07-18 08:36:00,86.1,76.4,30.09,South,174,4.0,5.0,73,0.00,,,0.00,396,Wunderground v.1.15,2013-07-18 12:36:00,
2013-07-18 08:42:00,86.6,76.1,30.09,South,174,3.0,4.0,71,0.00,,,0.00,418,Wunderground v.1.15,2013-07-18 12:42:00,
2013-07-18 08:48:00,87.3,76.7,30.09,South,174,3.0,5.0,71,0.00,,,0.00,425,Wunderground v.1.15,2013-07-18 12:48:00,
2013-07-18 08:56:00,87.2,76.2,30.08,South,174,5.0,7.0,70,0.00,,,0.00,459,Wunderground v.1.15,2013-07-18 12:56:00,
2013-07-18 09:02:00,87.5,76.1,30.08,South,174,5.0,5.0,69,0.00,,,0.00,461,Wunderground v.1.15,2013-07-18 13:02:00,
2013-07-18 09:08:00,87.9,76.5,30.08,South,174,4.0,7.0,69,0.00,,,0.00,483,Wunderground v.1.15,2013-07-18 13:08:00,
2013-07-18 09:14:00,88.5,76.6,30.08,South,174,3.0,5.0,68,0.00,,,0.00,501,Wunderground v.1.15,2013-07-18 13:14:00,
2013-07-18 09:20:00,88.6,76.2,30.08,South,174,4.0,5.0,67,0.00,,,0.00,517,Wunderground v.1.15,2013-07-18 13:20:00,
2013-07-18 09:26:00,88.8,75.5,30.08,South,174,5.0,6.0,65,0.00,,,0.00,533,Wunderground v.1.15,2013-07-18 13:26:00,
2013-07-18 09:32:00,89.2,76.4,30.08,South,174,5.0,5.0,66,0.00,,,0.00,543,Wunderground v.1.15,2013-07-18 13:32:00,
2013-07-18 09:38:00,89.5,75.7,30.08,South,174,4.0,8.0,64,0.00,,,0.00,578,Wunderground v.1.15,2013-07-18 13:38:00,
2013-07-18 09:46:00,89.5,76.6,30.09,South,174,6.0,7.0,66,0.00,,,0.00,591,Wunderground v.1.15,2013-07-18 13:46:00,
2013-07-18 09:52:00,90.2,76.8,30.09,South,174,5.0,6.0,65,0.00,,,0.00,603,Wunderground v.1.15,2013-07-18 13:52:00,
2013-07-18 09:58:00,90.5,76.7,30.09,South,174,4.0,6.0,64,0.00,,,0.00,621,Wunderground v.1.15,2013-07-18 13:58:00,
2013-07-18 10:06:00,91.1,77.2,30.09,South,174,4.0,6.0,64,0.00,,,0.00,640,Wunderground v.1.15,2013-07-18 14:06:00,
2013-07-18 10:12:00,91.5,77.6,30.09,South,174,3.0,3.0,64,0.00,,,0.00,650,Wunderground v.1.15,2013-07-18 14:12:00,
2013-07-18 10:18:00,91.5,76.6,30.09,South,174,4.0,7.0,62,0.00,,,0.00,666,Wunderground v.1.15,2013-07-18 14:18:00,
2013-07-18 10:26:00,91.3,76.9,30.08,South,174,4.0,6.0,63,0.00,,,0.00,679,Wunderground v.1.15,2013-07-18 14:26:00,
2013-07-18 10:32:00,92.3,77.4,30.09,South,174,3.0,4.0,62,0.00,,,0.00,693,Wunderground v.1.15,2013-07-18 14:32:00,
2013-07-18 10:38:00,92.1,77.2,30.09,South,174,4.0,4.0,62,0.00,,,0.00,701,Wunderground v.1.15,2013-07-18 14:38:00,
2013-07-18 10:44:00,92.5,77.1,30.09,South,174,4.0,6.0,61,0.00,,,0.00,717,Wunderground v.1.15,2013-07-18 14:44:00,
2013-07-18 10:50:00,92.8,77.4,30.08,South,174,4.0,4.0,61,0.00,,,0.00,721,Wunderground v.1.15,2013-07-18 14:50:00,
2013-07-18 10:56:00,92.6,75.7,30.08,South,174,5.0,8.0,58,0.00,,,0.00,731,Wunderground v.1.15,2013-07-18 14:56:00,
2013-07-18 11:02:00,92.8,74.8,30.08,South,174,6.0,6.0,56,0.00,,,0.00,745,Wunderground v.1.15,2013-07-18 15:02:00,
2013-07-18 11:08:00,92.5,75.0,30.08,South,174,6.0,7.0,57,0.00,,,0.00,756,Wunderground v.1.15,2013-07-18 15:08:00,
2013-07-18 11:16:00,93.0,76.6,30.08,South,174,5.0,6.0,59,0.00,,,0.00,759,Wunderground v.1.15,2013-07-18 15:16:00,
2013-07-18 11:22:00,93.1,75.6,30.08,South,174,4.0,5.0,57,0.00,,,0.00,726,Wunderground v.1.15,2013-07-18 15:22:00,
2013-07-18 11:28:00,93.4,73.7,30.08,South,174,5.0,8.0,53,0.00,,,0.00,786,Wunderground v.1.15,2013-07-18 15:28:00,
2013-07-18 11:36:00,93.8,75.2,30.08,South,174,4.0,5.0,55,0.00,,,0.00,802,Wunderground v.1.15,2013-07-18 15:36:00,
2013-07-18 11:42:00,94.2,75.0,30.08,South,174,4.0,8.0,54,0.00,,,0.00,796,Wunderground v.1.15,2013-07-18 15:42:00,
2013-07-18 11:48:00,94.3,74.5,30.08,South,174,5.0,8.0,53,0.00,,,0.00,817,Wunderground v.1.15,2013-07-18 15:48:00,
2013-07-18 11:56:00,94.2,75.0,30.08,South,174,5.0,8.0,54,0.00,,,0.00,831,Wunderground v.1.15,2013-07-18 15:56:00,
2013-07-18 12:02:00,93.0,73.9,30.08,South,174,5.0,6.0,54,0.00,,,0.00,844,Wunderground v.1.15,2013-07-18 16:02:00,
2013-07-18 12:08:00,93.5,74.9,30.07,South,174,4.0,6.0,55,0.00,,,0.00,830,Wunderground v.1.15,2013-07-18 16:08:00,
2013-07-18 12:14:00,94.5,73.6,30.07,South,174,4.0,4.0,51,0.00,,,0.00,844,Wunderground v.1.15,2013-07-18 16:14:00,
2013-07-18 12:20:00,95.0,74.6,30.07,South,174,4.0,4.0,52,0.00,,,0.00,842,Wunderground v.1.15,2013-07-18 16:20:00,
2013-07-18 12:26:00,92.2,74.8,30.07,South,174,3.0,6.0,57,0.00,,,0.00,881,Wunderground v.1.15,2013-07-18 16:26:00,
2013-07-18 12:32:00,90.5,74.2,30.07,South,174,4.0,5.0,59,0.00,,,0.00,960,Wunderground v.1.15,2013-07-18 16:32:00,
2013-07-18 12:38:00,88.4,74.7,30.07,South,174,4.0,7.0,64,0.00,,,0.00,944,Wunderground v.1.15,2013-07-18 16:38:00,
2013-07-18 12:44:00,86.2,74.8,30.07,South,174,5.0,8.0,69,0.00,,,0.00,341,Wunderground v.1.15,2013-07-18 16:44:00,
2013-07-18 12:50:00,86.0,75.1,30.07,South,174,5.0,5.0,70,0.00,,,0.00,339,Wunderground v.1.15,2013-07-18 16:50:00,
2013-07-18 12:56:00,84.6,75.0,30.07,South,174,4.0,7.0,73,0.00,,,0.00,287,Wunderground v.1.15,2013-07-18 16:56:00,
2013-07-18 13:02:00,84.2,74.6,30.07,South,174,4.0,4.0,73,0.00,,,0.00,958,Wunderground v.1.15,2013-07-18 17:02:00,
2013-07-18 13:08:00,84.7,75.5,30.07,South,174,5.0,8.0,74,0.00,,,0.00,937,Wunderground v.1.15,2013-07-18 17:08:00,
2013-07-18 13:16:00,85.6,75.1,30.07,South,174,5.0,5.0,71,0.00,,,0.00,933,Wunderground v.1.15,2013-07-18 17:16:00,
2013-07-18 13:22:00,84.9,75.3,30.07,South,174,5.0,5.0,73,0.00,,,0.00,269,Wunderground v.1.15,2013-07-18 17:22:00,
2013-07-18 13:28:00,83.9,75.1,30.07,South,174,4.0,5.0,75,0.00,,,0.00,914,Wunderground v.1.15,2013-07-18 17:28:00,
2013-07-18 13:34:00,83.3,74.9,30.07,South,174,4.0,9.0,76,0.00,,,0.00,237,Wunderground v.1.15,2013-07-18 17:34:00,
2013-07-18 13:40:00,83.6,76.0,30.07,South,174,6.0,13.0,78,0.00,,,0.00,893,Wunderground v.1.15,2013-07-18 17:40:00,
2013-07-18 13:46:00,84.4,76.0,30.06,South,174,6.0,13.0,76,0.00,,,0.00,874,Wunderground v.1.15,2013-07-18 17:46:00,
2013-07-18 13:52:00,84.8,76.0,30.06,South,174,6.0,8.0,75,0.00,,,0.00,905,Wunderground v.1.15,2013-07-18 17:52:00,
2013-07-18 13:58:00,85.0,76.2,30.06,South,174,7.0,10.0,75,0.00,,,0.00,898,Wunderground v.1.15,2013-07-18 17:58:00,
2013-07-18 14:06:00,84.8,76.0,30.06,South,174,6.0,8.0,75,0.00,,,0.00,858,Wunderground v.1.15,2013-07-18 18:06:00,
2013-07-18 14:12:00,84.5,75.7,30.05,South,174,6.0,10.0,75,0.00,,,0.00,886,Wunderground v.1.15,2013-07-18 18:12:00,
2013-07-18 14:18:00,85.2,76.0,30.05,South,176,7.0,10.0,74,0.00,,,0.00,861,Wunderground v.1.15,2013-07-18 18:18:00,
2013-07-18 14:24:00,84.6,75.8,30.05,South,178,7.0,11.0,75,0.00,,,0.00,889,Wunderground v.1.15,2013-07-18 18:24:00,
2013-07-18 14:30:00,84.0,75.6,30.05,South,190,9.0,9.0,76,0.00,,,0.00,851,Wunderground v.1.15,2013-07-18 18:30:00,
2013-07-18 14:36:00,84.7,76.3,30.05,South,191,8.0,10.0,76,0.00,,,0.00,830,Wunderground v.1.15,2013-07-18 18:36:00,
2013-07-18 14:42:00,84.9,76.1,30.05,SSW,194,8.0,9.0,75,0.00,,,0.00,824,Wunderground v.1.15,2013-07-18 18:42:00,
2013-07-18 14:48:00,85.0,76.2,30.05,SSW,196,9.0,10.0,75,0.00,,,0.00,814,Wunderground v.1.15,2013-07-18 18:48:00,
2013-07-18 14:54:00,84.7,75.9,30.05,SSW,196,8.0,8.0,75,0.00,,,0.00,838,Wunderground v.1.15,2013-07-18 18:54:00,
2013-07-18 15:00:00,84.4,76.0,30.04,SSW,196,7.0,8.0,76,0.00,,,0.00,800,Wunderground v.1.15,2013-07-18 19:00:00,
2013-07-18 15:06:00,84.3,75.9,30.04,SSW,196,7.0,8.0,76,0.00,,,0.00,775,Wunderground v.1.15,2013-07-18 19:06:00,
2013-07-18 15:12:00,84.5,76.1,30.04,SSW,196,7.0,9.0,76,0.00,,,0.00,735,Wunderground v.1.15,2013-07-18 19:12:00,
2013-07-18 15:18:00,84.5,75.7,30.04,SSW,196,7.0,9.0,75,0.00,,,0.00,765,Wunderground v.1.15,2013-07-18 19:18:00,
2013-07-18 15:24:00,83.4,75.0,30.04,SSW,196,7.0,8.0,76,0.00,,,0.00,747,Wunderground v.1.15,2013-07-18 19:24:00,
2013-07-18 15:30:00,83.4,75.4,30.03,SSW,197,7.0,7.0,77,0.00,,,0.00,752,Wunderground v.1.15,2013-07-18 19:30:00,
2013-07-18 15:36:00,83.6,75.6,30.03,SSW,197,8.0,10.0,77,0.00,,,0.00,729,Wunderground v.1.15,2013-07-18 19:36:00,
2013-07-18 15:42:00,83.4,75.0,30.03,SSW,197,8.0,8.0,76,0.00,,,0.00,308,Wunderground v.1.15,2013-07-18 19:42:00,
2013-07-18 15:48:00,84.0,75.6,30.03,SSW,197,7.0,9.0,76,0.00,,,0.00,698,Wunderground v.1.15,2013-07-18 19:48:00,
2013-07-18 15:54:00,84.8,75.6,30.02,SSW,197,7.0,9.0,74,0.00,,,0.00,680,Wunderground v.1.15,2013-07-18 19:54:00,
2013-07-18 16:00:00,83.7,74.9,30.03,SSW,197,7.0,8.0,75,0.00,,,0.00,621,Wunderground v.1.15,2013-07-18 20:00:00,
2013-07-18 16:06:00,83.7,75.3,30.02,SSW,197,6.0,8.0,76,0.00,,,0.00,670,Wunderground v.1.15,2013-07-18 20:06:00,
2013-07-18 16:12:00,84.8,75.2,30.02,SSW,198,7.0,7.0,73,0.00,,,0.00,633,Wunderground v.1.15,2013-07-18 20:12:00,
2013-07-18 16:18:00,85.3,75.7,30.02,SSW,198,7.0,7.0,73,0.00,,,0.00,661,Wunderground v.1.15,2013-07-18 20:18:00,
2013-07-18 16:26:00,84.2,75.4,30.02,SSW,198,5.0,6.0,75,0.00,,,0.00,675,Wunderground v.1.15,2013-07-18 20:26:00,
2013-07-18 16:32:00,85.8,75.7,30.01,SSW,198,6.0,10.0,72,0.00,,,0.00,608,Wunderground v.1.15,2013-07-18 20:32:00,
2013-07-18 16:38:00,85.8,75.7,30.01,SSW,198,7.0,10.0,72,0.00,,,0.00,561,Wunderground v.1.15,2013-07-18 20:38:00,
2013-07-18 16:44:00,84.5,74.9,30.02,SSW,198,6.0,7.0,73,0.00,,,0.00,578,Wunderground v.1.15,2013-07-18 20:44:00,
2013-07-18 16:50:00,83.8,75.0,30.01,SSW,198,6.0,7.0,75,0.00,,,0.00,536,Wunderground v.1.15,2013-07-18 20:50:00,
2013-07-18 16:56:00,84.1,75.3,30.01,SSW,198,5.0,7.0,75,0.00,,,0.00,533,Wunderground v.1.15,2013-07-18 20:56:00,
2013-07-18 17:02:00,85.3,76.1,30.01,SSW,198,5.0,7.0,74,0.00,,,0.00,527,Wunderground v.1.15,2013-07-18 21:02:00,
2013-07-18 17:08:00,85.3,75.7,30.01,SSW,198,6.0,8.0,73,0.00,,,0.00,501,Wunderground v.1.15,2013-07-18 21:08:00,
2013-07-18 17:14:00,85.0,75.4,30.01,SSW,198,6.0,7.0,73,0.00,,,0.00,459,Wunderground v.1.15,2013-07-18 21:14:00,
2013-07-18 17:20:00,84.5,75.3,30.00,SSW,198,5.0,7.0,74,0.00,,,0.00,422,Wunderground v.1.15,2013-07-18 21:20:00,
2013-07-18 17:26:00,84.2,74.6,30.00,SSW,198,5.0,7.0,73,0.00,,,0.00,452,Wunderground v.1.15,2013-07-18 21:26:00,
2013-07-18 17:32:00,83.8,75.0,30.00,SSW,198,4.0,4.0,75,0.00,,,0.00,181,Wunderground v.1.15,2013-07-18 21:32:00,
2013-07-18 17:38:00,85.0,75.4,30.00,SSW,198,4.0,5.0,73,0.00,,,0.00,436,Wunderground v.1.15,2013-07-18 21:38:00,
2013-07-18 17:44:00,87.8,75.0,30.00,SSW,198,5.0,5.0,66,0.00,,,0.00,403,Wunderground v.1.15,2013-07-18 21:44:00,
2013-07-18 17:50:00,90.4,77.5,30.00,SSW,198,4.0,8.0,66,0.00,,,0.00,388,Wunderground v.1.15,2013-07-18 21:50:00,
2013-07-18 17:56:00,92.9,78.0,30.00,SSW,198,6.0,8.0,62,0.00,,,0.00,371,Wunderground v.1.15,2013-07-18 21:56:00,
2013-07-18 18:02:00,93.5,77.5,30.00,SSW,213,7.0,7.0,60,0.00,,,0.00,329,Wunderground v.1.15,2013-07-18 22:02:00,
2013-07-18 18:08:00,93.6,77.6,30.00,SSW,213,6.0,7.0,60,0.00,,,0.00,306,Wunderground v.1.15,2013-07-18 22:08:00,
2013-07-18 18:14:00,93.6,77.6,30.00,SSW,213,6.0,8.0,60,0.00,,,0.00,292,Wunderground v.1.15,2013-07-18 22:14:00,
2013-07-18 18:20:00,93.5,77.0,30.00,SW,216,6.0,6.0,59,0.00,,,0.00,276,Wunderground v.1.15,2013-07-18 22:20:00,
2013-07-18 18:26:00,93.3,76.8,30.00,SW,219,6.0,10.0,59,0.00,,,0.00,267,Wunderground v.1.15,2013-07-18 22:26:00,
2013-07-18 18:32:00,93.1,77.2,30.00,SW,219,6.0,10.0,60,0.00,,,0.00,246,Wunderground v.1.15,2013-07-18 22:32:00,
2013-07-18 18:38:00,93.1,77.2,30.00,SW,219,6.0,10.0,60,0.00,,,0.00,230,Wunderground v.1.15,2013-07-18 22:38:00,
2013-07-18 18:46:00,92.8,77.4,30.00,SW,219,6.0,9.0,61,0.00,,,0.00,204,Wunderground v.1.15,2013-07-18 22:46:00,
2013-07-18 18:52:00,92.6,76.7,30.00,SW,219,6.0,6.0,60,0.00,,,0.00,185,Wunderground v.1.15,2013-07-18 22:52:00,
2013-07-18 18:58:00,92.4,77.0,30.00,SW,219,6.0,6.0,61,0.00,,,0.00,167,Wunderground v.1.15,2013-07-18 22:58:00,
2013-07-18 19:04:00,92.3,76.9,30.00,SW,219,6.0,6.0,61,0.00,,,0.00,153,Wunderground v.1.15,2013-07-18 23:04:00,
2013-07-18 19:10:00,92.2,77.3,30.00,SW,219,5.0,5.0,62,0.00,,,0.00,90,Wunderground v.1.15,2013-07-18 23:10:00,
2013-07-18 19:16:00,91.9,76.5,30.01,SW,219,5.0,6.0,61,0.00,,,0.00,40,Wunderground v.1.15,2013-07-18 23:16:00,
2013-07-18 19:22:00,91.4,76.5,30.01,SW,219,5.0,5.0,62,0.00,,,0.00,26,Wunderground v.1.15,2013-07-18 23:22:00,
2013-07-18 19:28:00,91.1,77.2,30.01,SW,219,4.0,7.0,64,0.00,,,0.00,19,Wunderground v.1.15,2013-07-18 23:28:00,
2013-07-18 19:34:00,90.6,76.7,30.02,SW,219,5.0,7.0,64,0.00,,,0.00,30,Wunderground v.1.15,2013-07-18 23:34:00,
2013-07-18 19:40:00,90.4,77.0,30.02,SW,219,5.0,5.0,65,0.00,,,0.00,42,Wunderground v.1.15,2013-07-18 23:40:00,
2013-07-18 19:46:00,90.2,76.4,30.02,SW,219,5.0,6.0,64,0.00,,,0.00,28,Wunderground v.1.15,2013-07-18 23:46:00,
2013-07-18 19:52:00,90.0,76.6,30.02,SW,219,5.0,5.0,65,0.00,,,0.00,28,Wunderground v.1.15,2013-07-18 23:52:00,
2013-07-18 19:58:00,89.9,76.6,30.03,SW,219,5.0,5.0,65,0.00,,,0.00,25,Wunderground v.1.15,2013-07-18 23:58:00,
2013-07-18 20:04:00,89.7,76.4,30.02,SW,219,4.0,6.0,65,0.00,,,0.00,14,Wunderground v.1.15,2013-07-19 00:04:00,
2013-07-18 20:10:00,89.6,76.7,30.03,SW,219,4.0,6.0,66,0.00,,,0.00,11,Wunderground v.1.15,2013-07-19 00:10:00,
2013-07-18 20:16:00,89.4,76.5,30.03,SW,219,4.0,6.0,66,0.00,,,0.00,5,Wunderground v.1.15,2013-07-19 00:16:00,
2013-07-18 20:22:00,89.2,76.8,30.03,SW,219,4.0,6.0,67,0.00,,,0.00,0,Wunderground v.1.15,2013-07-19 00:22:00,
2013-07-18 20:28:00,89.0,76.6,30.03,SW,219,4.0,6.0,67,0.00,,,0.00,0,Wunderground v.1.15,2013-07-19 00:28:00,
2013-07-18 20:34:00,88.7,76.8,30.03,SW,219,4.0,6.0,68,0.00,,,0.00,0,Wunderground v.1.15,2013-07-19 00:34:00,
2013-07-18 20:40:00,88.5,77.0,30.02,SW,219,4.0,4.0,69,0.00,,,0.00,0,Wunderground v.1.15,2013-07-19 00:40:00,
2013-07-18 20:46:00,88.3,77.3,30.02,SW,219,3.0,7.0,70,0.00,,,0.00,0,Wunderground v.1.15,2013-07-19 00:46:00,
2013-07-18 20:52:00,88.1,77.1,30.03,SW,219,3.0,3.0,70,0.00,,,0.00,0,Wunderground v.1.15,2013-07-19 00:52:00,
2013-07-18 20:58:00,87.9,77.3,30.02,SW,219,3.0,4.0,71,0.00,,,0.00,0,Wunderground v.1.15,2013-07-19 00:58:00,
2013-07-18 21:06:00,87.7,77.1,30.03,SW,219,3.0,4.0,71,0.00,,,0.00,0,Wunderground v.1.15,2013-07-19 01:06:00,
2013-07-18 21:12:00,87.6,77.5,30.03,SW,219,3.0,6.0,72,0.00,,,0.00,0,Wunderground v.1.15,2013-07-19 01:12:00,
2013-07-18 21:18:00,87.4,77.3,30.03,SW,219,3.0,6.0,72,0.00,,,0.00,0,Wunderground v.1.15,2013-07-19 01:18:00,
2013-07-18 21:24:00,87.3,77.2,30.03,SW,219,3.0,5.0,72,0.00,,,0.00,0,Wunderground v.1.15,2013-07-19 01:24:00,
2013-07-18 21:30:00,87.2,77.5,30.03,SW,219,3.0,3.0,73,0.00,,,0.00,0,Wunderground v.1.15,2013-07-19 01:30:00,
2013-07-18 21:36:00,87.0,77.3,30.03,SW,219,4.0,4.0,73,0.00,,,0.00,0,Wunderground v.1.15,2013-07-19 01:36:00,
2013-07-18 21:42:00,86.9,77.6,30.03,SW,219,3.0,5.0,74,0.00,,,0.00,0,Wunderground v.1.15,2013-07-19 01:42:00,
2013-07-18 21:48:00,86.6,77.3,30.03,SW,219,4.0,5.0,74,0.00,,,0.00,0,Wunderground v.1.15,2013-07-19 01:48:00,
2013-07-18 21:54:00,86.4,77.1,30.03,SW,219,4.0,6.0,74,0.00,,,0.00,0,Wunderground v.1.15,2013-07-19 01:54:00,
2013-07-18 22:00:00,86.2,76.9,30.04,SW,219,4.0,4.0,74,0.00,,,0.00,0,Wunderground v.1.15,2013-07-19 02:00:00,
2013-07-18 22:06:00,86.0,77.1,30.03,SW,219,4.0,8.0,75,0.00,,,0.00,0,Wunderground v.1.15,2013-07-19 02:06:00,
2013-07-18 22:12:00,85.8,77.0,30.03,SW,219,5.0,8.0,75,0.00,,,0.00,0,Wunderground v.1.15,2013-07-19 02:12:00,
2013-07-18 22:18:00,85.7,76.9,30.03,SW,219,6.0,8.0,75,0.00,,,0.00,0,Wunderground v.1.15,2013-07-19 02:18:00,
2013-07-18 22:24:00,85.5,77.1,30.03,SW,219,5.0,9.0,76,0.00,,,0.00,0,Wunderground v.1.15,2013-07-19 02:24:00,
2013-07-18 22:30:00,85.3,77.3,30.03,SW,219,5.0,6.0,77,0.00,,,0.00,0,Wunderground v.1.15,2013-07-19 02:30:00,
2013-07-18 22:36:00,85.1,77.5,30.03,SW,219,6.0,6.0,78,0.00,,,0.00,0,Wunderground v.1.15,2013-07-19 02:36:00,
2013-07-18 22:42:00,84.9,77.3,30.03,SW,219,5.0,6.0,78,0.00,,,0.00,0,Wunderground v.1.15,2013-07-19 02:42:00,
2013-07-18 22:48:00,84.6,77.4,30.03,SW,219,5.0,9.0,79,0.00,,,0.00,0,Wunderground v.1.15,2013-07-19 02:48:00,
2013-07-18 22:54:00,84.4,77.2,30.03,SW,219,6.0,11.0,79,0.00,,,0.00,0,Wunderground v.1.15,2013-07-19 02:54:00,
2013-07-18 23:00:00,84.1,76.9,30.03,SW,219,7.0,7.0,79,0.00,,,0.00,0,Wunderground v.1.15,2013-07-19 03:00:00,
2013-07-18 23:06:00,83.9,77.1,30.03,SW,219,6.0,9.0,80,0.00,,,0.00,0,Wunderground v.1.15,2013-07-19 03:06:00,
2013-07-18 23:12:00,83.6,76.8,30.03,SW,219,5.0,10.0,80,0.00,,,0.00,0,Wunderground v.1.15,2013-07-19 03:12:00,
2013-07-18 23:18:00,83.4,76.6,30.03,SW,219,7.0,10.0,80,0.00,,,0.00,0,Wunderground v.1.15,2013-07-19 03:18:00,
2013-07-18 23:26:00,83.2,76.4,30.02,SW,219,6.0,7.0,80,0.00,,,0.00,0,Wunderground v.1.15,2013-07-19 03:26:00,
2013-07-18 23:32:00,82.9,76.5,30.03,SSW,212,6.0,7.0,81,0.00,,,0.00,0,Wunderground v.1.15,2013-07-19 03:32:00,
2013-07-18 23:38:00,82.7,76.3,30.02,SW,214,7.0,10.0,81,0.00,,,0.00,0,Wunderground v.1.15,2013-07-19 03:38:00,
2013-07-18 23:44:00,82.6,75.8,30.03,SW,215,7.0,10.0,80,0.00,,,0.00,0,Wunderground v.1.15,2013-07-19 03:44:00,
2013-07-18 23:50:00,82.4,75.6,30.02,SW,217,7.0,9.0,80,0.00,,,0.00,0,Wunderground v.1.15,2013-07-19 03:50:00,
2013-07-18 23:56:00,82.2,75.4,30.02,SW,217,7.0,10.0,80,0.00,,,0.00,0,Wunderground v.1.15,2013-07-19 03:56:00,